Regional Weather Roundup
Issued by NWS

Home | Current Version | Previous Version | Graphics & Text | Print | Product List | Glossary On
Versions: 1 2 3 4 5 6 7 8 9 10 11 12 13 14 15 16 17 18 19 20 21 22 23 24 25 26 27 28 29 30 31 32 33 34 35 36 37 38 39 40 41 42 43 44 45 46 47 48 49 50
000
ASUS45 KBOU 121507
RWRCO

WEATHER ROUNDUP FOR COLORADO
NATIONAL WEATHER SERVICE DENVER/BOULDER CO
800 AM MST FRI FEB 12 2016

NOTE: "FAIR" INDICATES FEW OR NO CLOUDS BELOW 12000 FEET WITH NO
SIGNIFICANT WEATHER AND/OR OBSTRUCTIONS TO VISIBILITY.

COZ001>005-013-030-031-121600-
...NORTHWEST COLORADO...

CITY           SKY/WX    TMP DP  RH WIND       PRES   REMARKS
CRAIG          FAIR       8   3  80 CALM      30.44R
HAYDEN         FAIR      21  12  68 SE16      30.42R WCI   7
MEEKER         FAIR      21  12  68 CALM      30.44R
MOUNT WERNER   NOT AVBL
STEAMBOAT SPGS MOCLDY    16  13  85 CALM      30.44R
WALDEN         MOCLDY    30  14  51 CALM      30.41R
$$

COZ006>008-011-121600-
...WEST CENTRAL VALLEYS...

CITY           SKY/WX    TMP DP  RH WIND       PRES   REMARKS
GRAND JUNCTION FAIR      25  22  88 SE5       30.45R WCI  19
MONTROSE       FAIR      25  17  72 S8        30.48R WCI  16
EAGLE          PTCLDY    12   9  85 CALM      30.53R
RIFLE          FAIR      16  11  80 SE6       30.48R WCI   7
DELTA          FAIR      29  24  81 CALM      30.47S
NUCLA          FAIR      28  21  74 CALM      30.49R
$$

COZ017>023-064>068-121600-
...SOUTHWEST COLORADO...

CITY           SKY/WX    TMP DP  RH WIND       PRES   REMARKS
DURANGO        FAIR      18  14  84 CALM      30.44R
CORTEZ         FAIR      23  17  78 E5        30.44R WCI  17
PAGOSA SPRINGS FAIR      24  15  68 CALM      30.45R
TELLURIDE      FAIR      31  14  48 SE8       30.51R WCI  24
WOLF CREEK PAS FAIR      32  14  47 NE6       30.60R WCI  26
$$

COZ009-010-012-014-032>034-037-058>063-121600-
...CENTRAL COLORADO...

CITY           SKY/WX    TMP DP  RH WIND       PRES   REMARKS
ASPEN          FAIR      21  13  71 S8        30.45R WCI  11
BUENA VISTA    FAIR      27  19  71 CALM      30.44R
COPPER MTN     FAIR      30  12  47 W14       30.53R WCI  20
BERTHOUD PASS  FAIR      21  10  63 NW41G47   30.45R WCI   0
COTTONWOOD PAS FAIR      37  12  35 CALM      30.46R
GUNNISON       FAIR      -8 -11  84 CALM      30.60R
KREMMLING      MOCLDY     0  -6  78 CALM      30.52R
LEADVILLE      FAIR      27  16  63 E5        30.46R WCI  22
MONARCH PASS   FAIR      27   9  46 W30       30.62R WCI  10
SALIDA         NOT AVBL
SUNLIGHT       FAIR      32  12  43 CALM        N/A
WILKERSON PASS FAIR      30  14  51 SW6       30.51S WCI  24
$$

COZ069>075-121600-
...SAN LUIS VALLEY/SANGRE DE CRISTO MOUNTAINS...

CITY           SKY/WX    TMP DP  RH WIND       PRES   REMARKS
ALAMOSA        FAIR      21  17  84 E5        30.46R WCI  15
LA VETA PASS   FAIR      32  10  40 S9        30.46R WCI  24
SAGUACHE       FAIR      30  14  51 N7        30.48R WCI  23
$$

COZ035-036-038>040-121600-
...NORTHERN COLORADO FRONT RANGE...

CITY           SKY/WX    TMP DP  RH WIND       PRES   REMARKS
DENVER INTL AP PTSUNNY   34  25  69 W6        30.29R WCI  29
DMNS CITY PARK   N/A     37  26  64 N7        30.31R
AURORA         PTSUNNY   35  25  67 N2        30.30R
FRONT RANGE AP PTSUNNY   36  27  69 MISG      30.29
ERIE MUNI ARPT FAIR      31  29  92 CALM      30.30S
BOULDER MUN AP FAIR      36  28  75 CALM      30.30R
CENTENNIAL     FAIR      38  25  59 NE3       30.29R
BROOMFIELD     PTSUNNY   36  27  69 NW6       30.29R
FORT COLLINS   FAIR      34  25  69 CALM      30.31R
LONGMONT       FAIR      32  27  83 CALM      30.33R
$$

COZ041-046-047-076>085-087-088-121600-
...PIKES PEAK/PALMER DIVIDE AND SOUTHERN FOOTHILLS...

CITY           SKY/WX    TMP DP  RH WIND       PRES   REMARKS
COLO. SPRINGS  FAIR      37  22  54 E3        30.33R
A. F. ACADEMY  FAIR      31  22  70 N5        30.33R WCI  26
SCHRIEVER AFB  FAIR      36  24  60 S6        30.33R
ELLICOTT       FAIR     N/A N/A N/A CALM      30.32R
FALCON         FAIR      35  21  56 CALM      30.34S
FORT CARSON    FAIR      34  24  67 N6        30.32R WCI  29
LIMON          FAIR      27  22  81 CALM      30.31S
MONUMENT HILL  FAIR      36  21  55 SW8       30.34R
TRINIDAD       FAIR      41  21  44 SW9       30.33S
$$

COZ042>045-048>051-090-091-121600-
...NORTHEAST COLORADO...

CITY           SKY/WX    TMP DP  RH WIND       PRES   REMARKS
GREELEY ARPT     N/A     30  27  86 CALM      30.32R
AKRON          FAIR      43  26  51 NW5       30.31R
BURLINGTON     FAIR      34  27  75 SW5       30.32R WCI  30
WRAY           NOT AVBL
STERLING       PTSUNNY   32  30  93 CALM      30.31R
HOLYOKE        FAIR      36  32  87 W8        30.32R
FORT MORGAN    CLOUDY    32  29  88 NE5       30.31S WCI  28
$$

COZ086-089-092>099-121600-
...SOUTHEAST COLORADO...

CITY           SKY/WX    TMP DP  RH WIND       PRES   REMARKS
PUEBLO         FAIR      32  25  75 NW3       30.33R
LA JUNTA       FAIR      36  27  69 S5        30.32F
LAMAR          FAIR      30  27  88 CALM      30.33R
SPRINGFIELD      N/A     40  28  62 CALM      30.34R
$$



USA.gov is the U.S. government's official web portal to all federal, state and local government web resources and services.